Weather History for Eagle, CO

Change the Weather History Date:

Thursday, July 18, 2013

  Actual Average Record
Temperature  
Mean Temperature 70 °F -  
Max Temperature 86 °F 85 °F 93 °F (1955)
Min Temperature 53 °F 48 °F 38 °F (1960)
Cooling Degree Days 4    
Growing Degree Days 20 (Base 50)    
Moisture  
Dew Point 53 °F    
Average Humidity 74    
Maximum Humidity 94    
Minimum Humidity 22    
Precipitation  
Precipitation 0.00 in - - ()
Sea Level Pressure  
Sea Level Pressure 30.32 in    
Wind  
Wind Speed 4 mph (East)    
Max Wind Speed 24 mph    
Max Gust Speed 31 mph    
Visibility 10 miles    
Events      
Averages and records for this station are not official NWS values.
T = Trace of Precipitation, MM = Missing Value Source: NWS Daily Summary

Daily Weather History Graph

Daily Weather History Graph

Search for Another Location

Airport:

Trip Planner

Search our weather history database for the weather conditions in past years. The results will help you decide how hot, cold, wet, or windy it might be!

Date:

Astronomy

Jul. 18, 2013 Rise Set
Actual Time 5:55 AM MDT 8:32 PM MDT
Civil Twilight 5:23 AM MDT 9:03 PM MDT
Nautical Twilight 4:44 AM MDT 9:42 PM MDT
Astronomical Twilight 4:00 AM MDT 10:26 PM MDT
Moon 4:32 PM MDT (7/18) 1:47 AM MDT (7/18)
Length of Visible Light 15h 39m
Length of Day
14h 37m
Waxing Gibbous, 78% of the Moon is Illuminated
Jul 18
Waxing Gibbous
Jul 22
Full
Jul 29
Last Quarter
Aug 6
New
Aug 14
First Quarter

Hourly Weather History & Observations

Time (MDT) Temp. Dew Point Humidity Pressure Visibility Wind Dir Wind Speed Gust Speed Precip Events Conditions
12:15 AM 62.6 °F 53.6 °F 72% 30.32 in 10.0 mi ESE 6.9 mph - N/A   Mostly Cloudy
12:35 AM 60.8 °F 53.6 °F 77% 30.33 in 10.0 mi SE 3.5 mph - N/A   Partly Cloudy
1:15 AM 60.8 °F 53.6 °F 77% 30.33 in 10.0 mi Calm Calm - N/A   Partly Cloudy
1:35 AM 60.8 °F 53.6 °F 77% 30.34 in 10.0 mi Calm Calm - N/A   Clear
1:55 AM 59.0 °F 53.6 °F 82% 30.33 in 10.0 mi Calm Calm - N/A   Clear
2:15 AM 59.0 °F 53.6 °F 82% 30.33 in 10.0 mi ESE 3.5 mph - N/A   Clear
2:35 AM 57.2 °F 53.6 °F 88% 30.34 in 10.0 mi Calm Calm - N/A   Clear
2:55 AM 57.2 °F 53.6 °F 88% 30.34 in 10.0 mi ESE 3.5 mph - N/A   Clear
3:15 AM 57.2 °F 53.6 °F 88% 30.34 in 10.0 mi ENE 3.5 mph - N/A   Clear
3:35 AM 57.2 °F 53.6 °F 88% 30.34 in 10.0 mi Calm Calm - N/A   Clear
3:55 AM 55.4 °F 53.6 °F 94% 30.34 in 10.0 mi East 3.5 mph - N/A   Clear
4:15 AM 55.4 °F 51.8 °F 88% 30.34 in 10.0 mi East 3.5 mph - N/A   Clear
4:35 AM 55.4 °F 51.8 °F 88% 30.34 in 10.0 mi ESE 3.5 mph - N/A   Clear
4:55 AM 55.4 °F 51.8 °F 88% 30.35 in 10.0 mi ENE 3.5 mph - N/A   Clear
5:15 AM 55.4 °F 51.8 °F 88% 30.35 in 10.0 mi East 4.6 mph - N/A   Clear
5:35 AM 55.4 °F 51.8 °F 88% 30.36 in 10.0 mi Calm Calm - N/A   Clear
5:55 AM 53.6 °F 51.8 °F 94% 30.35 in 10.0 mi South 3.5 mph - N/A   Clear
6:15 AM 55.4 °F 51.8 °F 88% 30.36 in 10.0 mi Calm Calm - N/A   Clear
6:35 AM 55.4 °F 51.8 °F 88% 30.35 in 10.0 mi Calm Calm - N/A   Clear
6:50 AM 55.4 °F 51.8 °F 88% 30.36 in 10.0 mi Calm Calm - N/A   Clear
7:55 AM 59.0 °F 51.8 °F 77% 30.36 in 10.0 mi Calm Calm - N/A   Clear
8:50 AM 64.4 °F 51.8 °F 64% 30.36 in 10.0 mi Calm Calm - N/A   Clear
9:50 AM 68.0 °F 51.8 °F 56% 30.34 in 10.0 mi Calm Calm - N/A   Partly Cloudy
10:50 AM 73.4 °F 51.8 °F 47% 30.32 in 10.0 mi NW 3.5 mph - N/A   Partly Cloudy
11:50 AM 78.8 °F 51.8 °F 39% 30.28 in 10.0 mi Calm Calm - N/A   Partly Cloudy
12:50 PM 82.4 °F 50.0 °F 32% 30.25 in 10.0 mi West 8.1 mph - N/A   Scattered Clouds
1:55 PM 84.2 °F 50.0 °F 30% 30.22 in 10.0 mi WNW 20.7 mph 26.5 mph N/A   Scattered Clouds
2:50 PM 84.2 °F 44.6 °F 25% 30.20 in 10.0 mi West 24.2 mph 31.1 mph N/A   Scattered Clouds
3:50 PM 86.0 °F 42.8 °F 22% 30.18 in 10.0 mi WSW 8.1 mph 16.1 mph N/A   Mostly Cloudy
4:50 PM 82.4 °F 44.6 °F 26% 30.18 in 10.0 mi ESE 16.1 mph 23.0 mph N/A   Mostly Cloudy
5:50 PM 69.8 °F 53.6 °F 56% 30.22 in 10.0 mi ENE 23.0 mph 29.9 mph N/A   Overcast
6:50 PM 66.2 °F 53.6 °F 64% 30.27 in 10.0 mi NE 11.5 mph 18.4 mph N/A   Overcast
7:15 PM 64.4 °F 55.4 °F 73% 30.29 in 10.0 mi NNE 9.2 mph - N/A   Mostly Cloudy
7:35 PM 64.4 °F 55.4 °F 73% 30.30 in 8.0 mi ESE 4.6 mph - N/A   Overcast
8:15 PM 62.6 °F 57.2 °F 82% 30.34 in 8.0 mi Calm Calm - N/A   Overcast
8:35 PM 62.6 °F 57.2 °F 82% 30.34 in 10.0 mi NNE 3.5 mph - N/A   Overcast
8:55 PM 60.8 °F 59.0 °F 94% 30.35 in 10.0 mi Calm Calm - N/A   Overcast
9:15 PM 60.8 °F 57.2 °F 88% 30.36 in 10.0 mi Calm Calm - N/A   Overcast
9:35 PM 60.8 °F 59.0 °F 94% 30.36 in 9.0 mi NNE 3.5 mph - N/A   Overcast
10:35 PM 60.8 °F 59.0 °F 94% 30.38 in 10.0 mi East 6.9 mph - N/A   Overcast
10:55 PM 60.8 °F 59.0 °F 94% 30.36 in 10.0 mi ESE 10.4 mph - N/A   Overcast
11:15 PM 60.8 °F 57.2 °F 88% 30.35 in 10.0 mi ENE 4.6 mph - N/A   Mostly Cloudy
11:35 PM 60.8 °F 57.2 °F 88% 30.34 in 10.0 mi West 3.5 mph - N/A   Mostly Cloudy